Location: Limoges
(45.8500°N, 1.2500°E)
Time: 01:48:02
(UTC+01:00)

ISS - Pass Details

Date: 07 December 2020
Orbit: 418 x 419 km, 51.6° (Epoch: 17 January)

Event Time Altitude Azimuth Distance (km) Brightness Sun altitude
Rises 18:59:49 0° 294° (WNW) 2,367 0.9 -18.3°
Reaches altitude 10° 19:02:02 10° 284° (WNW) 1,500 0.0 -18.7°
Maximum altitude 19:05:06 33° 219° (SW) 730 -2.1 -19.2°
Enters shadow 19:07:14 16° 162° (SSE) 1,172 -1.6 -19.5°
